This demonstration page uses our WeatherBlox Daily Observations layout. Learn more.

Left ArrowRight Arrow

39.29038, -76.61219

Hourly Observations for January 7, 2017

Temp ( °F °C ) Dew Point ( °F °C ) Humidity (%) Winds ( mph kmh ) Pressure ( in mb ) Visibility ( mi km ) Precip ( " mm )
12:54 am 00:54 undefined 26 -3.3 7 -13.9 44 44 undefined N/A 30.38 1029 N/A 0.00 0.00
1:54 am 01:54 undefined 25 -3.9 6 -14.4 44 44 undefined N/A 30.26 1025 N/A 0.00 0.00
2:54 am 02:54 undefined 25 -3.9 6 -14.4 44 44 undefined N/A 30.34 1027 N/A 0.00 0.00
3:33 am 03:33 undefined 25 -3.9 7 -13.9 46 46 undefined N/A 30.39 1029 N/A 0.00 0.00
3:54 am 03:54 undefined 25 -3.9 7 -13.9 46 46 undefined N/A 30.35 1028 N/A 0.00 0.00
4:54 am 04:54 undefined 24 -4.4 7 -13.9 48 48 undefined N/A 30.25 1024 N/A 0.00 0.00
5:54 am 05:54 undefined 24 -4.4 7 -13.9 48 48 undefined N/A 30.33 1027 N/A 0.00 0.00
6:54 am 06:54 undefined 24 -4.4 7 -13.9 48 48 undefined N/A 30.29 1026 N/A 0.00 0.00
7:54 am 07:54 undefined 24 -4.4 7 -13.9 48 48 undefined N/A 30.23 1024 N/A 0.00 0.00
8:54 am 08:54 undefined 25 -3.9 8 -13.3 48 48 undefined N/A 30.37 1028 N/A 0.00 0.00
9:12 am 09:12 undefined 24 -4.4 11 -11.7 57 57 undefined N/A 30.39 1029 N/A 0.00 0.00
9:54 am 09:54 undefined 23 -5 14 -10 68 68 undefined N/A 30.33 1027 N/A 0.00 0.00
10:54 am 10:54 undefined 23 -5 15 -9.4 72 72 undefined N/A 30.22 1024 N/A 0.00 0.00
11:54 am 11:54 undefined 24 -4.4 14 -10 65 65 undefined N/A 30.23 1024 N/A 0.00 0.00
12:23 pm 12:23 undefined 23 -5 15 -9.4 72 72 undefined N/A 30.30 1026 N/A 0.00 0.00
12:54 pm 12:54 undefined 22 -5.6 15 -9.4 75 75 undefined N/A 30.28 1025 N/A 0.01 0.25
1:54 pm 13:54 undefined 23 -5 14 -10 68 68 undefined N/A 30.22 1023 N/A 0.01 0.25
2:54 pm 14:54 undefined 25 -3.9 9 -12.8 50 50 undefined N/A 30.13 1020 N/A 0.00 0.00
3:54 pm 15:54 undefined 25 -3.9 6 -14.4 44 44 undefined N/A 30.26 1025 N/A 0.00 0.00
4:54 pm 16:54 undefined 25 -3.9 5 -15 42 42 undefined N/A 30.24 1024 N/A 0.00 0.00
5:54 pm 17:54 undefined 24 -4.4 6 -14.4 46 46 undefined N/A 30.24 1024 N/A 0.00 0.00
6:54 pm 18:54 undefined 24 -4.4 5 -15 44 44 undefined N/A 30.17 1022 N/A 0.00 0.00
7:54 pm 19:54 undefined 23 -5 5 -15 46 46 undefined N/A 30.29 1026 N/A 0.00 0.00
8:26 pm 20:26 undefined 22 -5.6 5 -15 48 48 undefined N/A 30.33 1027 N/A 0.00 0.00
8:54 pm 20:54 undefined 22 -5.6 4 -15.6 46 46 undefined N/A 30.30 1026 N/A 0.00 0.00
9:54 pm 21:54 undefined 22 -5.6 4 -15.6 46 46 undefined N/A 30.30 1026 N/A 0.00 0.00
10:54 pm 22:54 undefined 21 -6.1 3 -16.1 45 45 undefined N/A 30.32 1027 N/A 0.00 0.00
11:54 pm 23:54 undefined 20 -6.7 2 -16.7 45 45 undefined N/A 30.32 1027 N/A 0.00 0.00

Powered by AerisWeather